Location: Unspecified
(50.7822°N, 1.1356°W)
Time: 17:21:32
(UTC+01:00)

CZ-3 Stage 3 - Visible Passes

Search period start: 22 April 2018 00:00
Search period end: 02 May 2018 00:00
Orbit: 435 x 34761 km, 31.0° (Epoch: 21 April)

Date Brightness Start Highest point End Pass type
(mag) Time Alt. Az. Time Alt. Az. Time Alt. Az.
22 Apr 9.0 03:52:22 10° SSE 07:46:05 32° SSE 08:21:29 10° ESE visible
24 Apr 6.9 05:53:34 10° SSW 11:39:23 41° S 11:51:32 10° ESE visible
25 Apr 9.0 03:35:23 10° SSE 07:36:18 33° SSE 08:12:10 10° E visible
27 Apr 6.9 05:32:42 10° S 11:29:45 41° S 11:42:03 10° ESE visible
28 Apr 9.1 03:18:32 10° SSE 07:26:27 34° SSE 08:02:49 10° E visible
30 Apr 7.0 05:12:42 10° S 11:20:05 42° S 11:32:32 10° ESE visible
01 May 9.1 03:01:47 10° SE 07:16:34 35° SSE 07:53:26 10° E visible
